TimePDT,TemperatureF,Dew PointF,Humidity,Sea Level PressureIn,VisibilityMPH,Wind Direction,Wind SpeedMPH,Gust SpeedMPH,PrecipitationIn,Events,Conditions,WindDirDegrees,DateUTC
12:56 AM,52.0,42.1,69,30.13,10.0,NNE,5.8,-,N/A,,Overcast,20,2013-05-10 07:56:00
1:56 AM,48.0,41.0,77,30.11,10.0,NNW,5.8,-,N/A,,Clear,340,2013-05-10 08:56:00
2:56 AM,48.9,39.9,71,30.12,10.0,NW,6.9,-,N/A,,Mostly Cloudy,310,2013-05-10 09:56:00
3:56 AM,48.0,39.0,71,30.13,10.0,NNW,6.9,-,N/A,,Partly Cloudy,330,2013-05-10 10:56:00
4:56 AM,46.0,39.0,76,30.12,10.0,North,4.6,-,N/A,,Clear,360,2013-05-10 11:56:00
5:56 AM,45.0,39.0,80,30.14,10.0,NW,4.6,-,N/A,,Clear,320,2013-05-10 12:56:00
6:56 AM,50.0,39.9,68,30.16,10.0,NW,5.8,-,N/A,,Clear,320,2013-05-10 13:56:00
7:56 AM,61.0,39.9,46,30.15,10.0,NNW,8.1,-,N/A,,Clear,340,2013-05-10 14:56:00
8:56 AM,66.0,39.9,38,30.14,10.0,NW,5.8,-,N/A,,Clear,310,2013-05-10 15:56:00
9:56 AM,72.0,37.9,29,30.13,10.0,NW,3.5,-,N/A,,Clear,310,2013-05-10 16:56:00
10:56 AM,73.9,37.0,26,30.12,10.0,Variable,3.5,-,N/A,,Partly Cloudy,0,2013-05-10 17:56:00
11:56 AM,80.1,33.1,18,30.10,10.0,Calm,Calm,-,N/A,,Clear,0,2013-05-10 18:56:00
12:56 PM,79.0,30.0,17,30.08,10.0,Variable,4.6,-,N/A,,Clear,0,2013-05-10 19:56:00
1:56 PM,82.0,28.0,14,30.06,10.0,Variable,3.5,-,N/A,,Partly Cloudy,0,2013-05-10 20:56:00
2:56 PM,82.0,28.9,14,30.05,10.0,Calm,Calm,-,N/A,,Mostly Cloudy,0,2013-05-10 21:56:00
3:56 PM,84.0,27.0,13,30.03,10.0,WSW,10.4,17.3,N/A,,Partly Cloudy,250,2013-05-10 22:56:00
4:56 PM,82.0,26.1,13,30.03,10.0,ENE,4.6,-,N/A,,Clear,70,2013-05-10 23:56:00
5:56 PM,79.0,32.0,18,30.04,10.0,South,15.0,21.9,N/A,,Partly Cloudy,190,2013-05-11 00:56:00
6:56 PM,77.0,33.1,20,30.05,10.0,SW,5.8,-,N/A,,Scattered Clouds,220,2013-05-11 01:56:00
7:56 PM,68.0,35.1,30,30.06,10.0,East,5.8,-,N/A,,Clear,90,2013-05-11 02:56:00
8:56 PM,68.0,36.0,31,30.08,10.0,West,3.5,-,N/A,,Clear,270,2013-05-11 03:56:00
9:56 PM,61.0,37.0,41,30.11,10.0,Calm,Calm,-,N/A,,Clear,0,2013-05-11 04:56:00
10:56 PM,61.0,35.1,38,30.12,10.0,NNW,6.9,-,N/A,,Clear,340,2013-05-11 05:56:00
11:56 PM,60.1,35.1,39,30.12,10.0,NW,8.1,-,N/A,,Scattered Clouds,320,2013-05-11 06:56:00